TimeCST,TemperatureF,Dew PointF,Humidity,Sea Level PressureIn,VisibilityMPH,Wind Direction,Wind SpeedMPH,Gust SpeedMPH,PrecipitationIn,Events,Conditions,WindDirDegrees,DateUTC
12:00 AM,57.2,53.6,88,30.33,-9999.0,NNE,13.8,-,N/A,,Clear,30,2014-01-26 06:00:00
1:00 AM,57.2,53.6,88,30.33,6.2,NNE,13.8,-,N/A,,Partly Cloudy,30,2014-01-26 07:00:00
2:00 AM,55.4,53.6,94,30.30,6.2,NNE,11.5,-,N/A,,Partly Cloudy,20,2014-01-26 08:00:00
3:00 AM,55.4,51.8,88,30.30,-9999.0,North,9.2,-,N/A,,Clear,360,2014-01-26 09:00:00
4:00 AM,55.4,51.8,88,30.30,-9999.0,North,9.2,-,N/A,,Clear,360,2014-01-26 10:00:00
5:00 AM,55.4,51.8,88,30.30,-9999.0,North,9.2,-,N/A,,Clear,360,2014-01-26 11:00:00
6:00 AM,55,52,88,30.05,25,North,11.5,,,,,0,2014-01-26 12:00:00
6:00 AM,55.4,51.8,88,30.30,-9999.0,North,11.5,-,N/A,,Clear,360,2014-01-26 12:00:00
7:00 AM,57.2,51.8,82,30.33,6.2,North,13.8,-,N/A,,Partly Cloudy,360,2014-01-26 13:00:00
8:00 AM,59.0,53.6,82,30.33,6.2,North,11.5,-,N/A,,Partly Cloudy,360,2014-01-26 14:00:00
9:00 AM,64.4,53.6,68,30.33,6.2,North,13.8,-,N/A,,Partly Cloudy,360,2014-01-26 15:00:00
10:00 AM,68.0,53.6,60,30.33,6.2,North,9.2,-,N/A,,Partly Cloudy,360,2014-01-26 16:00:00
11:00 AM,69.8,53.6,56,30.33,6.2,North,13.8,-,N/A,,Partly Cloudy,360,2014-01-26 17:00:00
12:00 PM,72,55,46,30.00,25,North,11.5,,,,Scattered Clouds,0,2014-01-26 18:00:00
12:00 PM,71.6,55.4,57,30.30,6.2,North,11.5,-,N/A,,Partly Cloudy,360,2014-01-26 18:00:00
1:00 PM,75.2,55.4,50,30.24,6.2,North,11.5,-,N/A,,Scattered Clouds,360,2014-01-26 19:00:00
2:00 PM,77.0,53.6,44,30.21,6.2,NE,6.9,-,N/A,,Scattered Clouds,40,2014-01-26 20:00:00
3:00 PM,75.2,55.4,50,30.18,6.2,NE,9.2,-,N/A,,Partly Cloudy,40,2014-01-26 21:00:00
4:00 PM,73.4,55.4,53,30.18,6.2,NNE,11.5,-,N/A,,Scattered Clouds,30,2014-01-26 22:00:00
5:00 PM,69.8,55.4,60,30.18,6.2,NE,6.9,-,N/A,,Scattered Clouds,40,2014-01-26 23:00:00
6:00 PM,68,57,60,29.95,25,NNE,6.9,,,,Partly Cloudy,30,2014-01-27 00:00:00
6:00 PM,68.0,57.2,68,30.21,6.2,NNE,6.9,-,N/A,,Scattered Clouds,30,2014-01-27 00:00:00
7:00 PM,64.4,55.4,73,30.21,6.2,North,9.2,-,N/A,,Partly Cloudy,360,2014-01-27 01:00:00
8:00 PM,62.6,57.2,82,30.24,6.2,North,16.1,-,N/A,,Scattered Clouds,360,2014-01-27 02:00:00
9:00 PM,62.6,55.4,77,30.27,6.2,North,11.5,-,N/A,,Partly Cloudy,360,2014-01-27 03:00:00
10:00 PM,60.8,55.4,82,30.27,6.2,North,13.8,-,N/A,,Scattered Clouds,360,2014-01-27 04:00:00
11:00 PM,60.8,55.4,82,30.27,6.2,North,11.5,-,N/A,,Mostly Cloudy,360,2014-01-27 05:00:00